Index of /20260501/WXO-DD/model_rdps/10km/06/019
Name Last modified Size Description
Parent Directory -
20260501T06Z_MSC_RDPS_AbsoluteVorticity_IsbL-0250_RLatLon0.09_PT019H.grib2 2026-05-01 08:45 594K
20260501T06Z_MSC_RDPS_AbsoluteVorticity_IsbL-0500_RLatLon0.09_PT019H.grib2 2026-05-01 08:45 561K
20260501T06Z_MSC_RDPS_AbsoluteVorticity_IsbL-0700_RLatLon0.09_PT019H.grib2 2026-05-01 08:45 621K
20260501T06Z_MSC_RDPS_AbsoluteVorticity_IsbL-0850_RLatLon0.09_PT019H.grib2 2026-05-01 08:45 771K
20260501T06Z_MSC_RDPS_AirTemp_AGL-120m_RLatLon0.09_PT019H.grib2 2026-05-01 08:45 385K
20260501T06Z_MSC_RDPS_AirTemp_AGL-2m_RLatLon0.09_PT019H.grib2 2026-05-01 08:45 619K
20260501T06Z_MSC_RDPS_AirTemp_AGL-40m_RLatLon0.09_PT019H.grib2 2026-05-01 08:45 395K
20260501T06Z_MSC_RDPS_AirTemp_AGL-80m_RLatLon0.09_PT019H.grib2 2026-05-01 08:45 388K
20260501T06Z_MSC_RDPS_AirTemp_IsbL-0001_RLatLon0.09_PT019H.grib2 2026-05-01 08:45 253K
20260501T06Z_MSC_RDPS_AirTemp_IsbL-0005_RLatLon0.09_PT019H.grib2 2026-05-01 08:45 283K
20260501T06Z_MSC_RDPS_AirTemp_IsbL-0010_RLatLon0.09_PT019H.grib2 2026-05-01 08:45 292K
20260501T06Z_MSC_RDPS_AirTemp_IsbL-0020_RLatLon0.09_PT019H.grib2 2026-05-01 08:45 400K
20260501T06Z_MSC_RDPS_AirTemp_IsbL-0030_RLatLon0.09_PT019H.grib2 2026-05-01 08:45 330K
20260501T06Z_MSC_RDPS_AirTemp_IsbL-0050_RLatLon0.09_PT019H.grib2 2026-05-01 08:45 309K
20260501T06Z_MSC_RDPS_AirTemp_IsbL-0100_RLatLon0.09_PT019H.grib2 2026-05-01 08:45 420K
20260501T06Z_MSC_RDPS_AirTemp_IsbL-0150_RLatLon0.09_PT019H.grib2 2026-05-01 08:45 418K
20260501T06Z_MSC_RDPS_AirTemp_IsbL-0175_RLatLon0.09_PT019H.grib2 2026-05-01 08:45 411K
20260501T06Z_MSC_RDPS_AirTemp_IsbL-0200_RLatLon0.09_PT019H.grib2 2026-05-01 08:45 413K
20260501T06Z_MSC_RDPS_AirTemp_IsbL-0225_RLatLon0.09_PT019H.grib2 2026-05-01 08:45 409K
20260501T06Z_MSC_RDPS_AirTemp_IsbL-0250_RLatLon0.09_PT019H.grib2 2026-05-01 08:45 415K
20260501T06Z_MSC_RDPS_AirTemp_IsbL-0275_RLatLon0.09_PT019H.grib2 2026-05-01 08:45 395K
20260501T06Z_MSC_RDPS_AirTemp_IsbL-0300_RLatLon0.09_PT019H.grib2 2026-05-01 08:45 404K
20260501T06Z_MSC_RDPS_AirTemp_IsbL-0350_RLatLon0.09_PT019H.grib2 2026-05-01 08:45 418K
20260501T06Z_MSC_RDPS_AirTemp_IsbL-0400_RLatLon0.09_PT019H.grib2 2026-05-01 08:45 420K
20260501T06Z_MSC_RDPS_AirTemp_IsbL-0450_RLatLon0.09_PT019H.grib2 2026-05-01 08:45 394K
20260501T06Z_MSC_RDPS_AirTemp_IsbL-0500_RLatLon0.09_PT019H.grib2 2026-05-01 08:45 407K
20260501T06Z_MSC_RDPS_AirTemp_IsbL-0550_RLatLon0.09_PT019H.grib2 2026-05-01 08:45 427K
20260501T06Z_MSC_RDPS_AirTemp_IsbL-0600_RLatLon0.09_PT019H.grib2 2026-05-01 08:45 447K
20260501T06Z_MSC_RDPS_AirTemp_IsbL-0650_RLatLon0.09_PT019H.grib2 2026-05-01 08:45 460K
20260501T06Z_MSC_RDPS_AirTemp_IsbL-0700_RLatLon0.09_PT019H.grib2 2026-05-01 08:45 378K
20260501T06Z_MSC_RDPS_AirTemp_IsbL-0750_RLatLon0.09_PT019H.grib2 2026-05-01 08:45 408K
20260501T06Z_MSC_RDPS_AirTemp_IsbL-0800_RLatLon0.09_PT019H.grib2 2026-05-01 08:45 445K
20260501T06Z_MSC_RDPS_AirTemp_IsbL-0850_RLatLon0.09_PT019H.grib2 2026-05-01 08:45 488K
20260501T06Z_MSC_RDPS_AirTemp_IsbL-0875_RLatLon0.09_PT019H.grib2 2026-05-01 08:45 507K
20260501T06Z_MSC_RDPS_AirTemp_IsbL-0900_RLatLon0.09_PT019H.grib2 2026-05-01 08:45 515K
20260501T06Z_MSC_RDPS_AirTemp_IsbL-0925_RLatLon0.09_PT019H.grib2 2026-05-01 08:45 513K
20260501T06Z_MSC_RDPS_AirTemp_IsbL-0950_RLatLon0.09_PT019H.grib2 2026-05-01 08:45 516K
20260501T06Z_MSC_RDPS_AirTemp_IsbL-0970_RLatLon0.09_PT019H.grib2 2026-05-01 08:45 512K
20260501T06Z_MSC_RDPS_AirTemp_IsbL-0985_RLatLon0.09_PT019H.grib2 2026-05-01 08:45 505K
20260501T06Z_MSC_RDPS_AirTemp_IsbL-1000_RLatLon0.09_PT019H.grib2 2026-05-01 08:45 490K
20260501T06Z_MSC_RDPS_AirTemp_IsbL-1015_RLatLon0.09_PT019H.grib2 2026-05-01 08:45 483K
20260501T06Z_MSC_RDPS_Albedo_Sfc_RLatLon0.09_PT019H.grib2 2026-05-01 08:45 159K
20260501T06Z_MSC_RDPS_CAPE_Sfc_RLatLon0.09_PT019H.grib2 2026-05-01 08:45 1.7M
20260501T06Z_MSC_RDPS_CIN_Sfc_RLatLon0.09_PT019H.grib2 2026-05-01 08:45 1.2M
20260501T06Z_MSC_RDPS_CloudWater_EAtm_RLatLon0.09_PT019H.grib2 2026-05-01 08:45 222K
20260501T06Z_MSC_RDPS_ConvectivePrecip-Accum_Sfc_RLatLon0.09_PT019H.grib2 2026-05-01 08:45 732K
20260501T06Z_MSC_RDPS_DewPointDepression_AGL-2m_RLatLon0.09_PT019H.grib2 2026-05-01 08:45 404K
20260501T06Z_MSC_RDPS_DewPointDepression_IsbL-0001_RLatLon0.09_PT019H.grib2 2026-05-01 08:45 193
20260501T06Z_MSC_RDPS_DewPointDepression_IsbL-0005_RLatLon0.09_PT019H.grib2 2026-05-01 08:45 193
20260501T06Z_MSC_RDPS_DewPointDepression_IsbL-0010_RLatLon0.09_PT019H.grib2 2026-05-01 08:45 193
20260501T06Z_MSC_RDPS_DewPointDepression_IsbL-0020_RLatLon0.09_PT019H.grib2 2026-05-01 08:45 193
20260501T06Z_MSC_RDPS_DewPointDepression_IsbL-0030_RLatLon0.09_PT019H.grib2 2026-05-01 08:45 193
20260501T06Z_MSC_RDPS_DewPointDepression_IsbL-0050_RLatLon0.09_PT019H.grib2 2026-05-01 08:45 78K
20260501T06Z_MSC_RDPS_DewPointDepression_IsbL-0100_RLatLon0.09_PT019H.grib2 2026-05-01 08:45 124K
20260501T06Z_MSC_RDPS_DewPointDepression_IsbL-0150_RLatLon0.09_PT019H.grib2 2026-05-01 08:45 154K
20260501T06Z_MSC_RDPS_DewPointDepression_IsbL-0175_RLatLon0.09_PT019H.grib2 2026-05-01 08:45 191K
20260501T06Z_MSC_RDPS_DewPointDepression_IsbL-0200_RLatLon0.09_PT019H.grib2 2026-05-01 08:45 224K
20260501T06Z_MSC_RDPS_DewPointDepression_IsbL-0225_RLatLon0.09_PT019H.grib2 2026-05-01 08:45 256K
20260501T06Z_MSC_RDPS_DewPointDepression_IsbL-0250_RLatLon0.09_PT019H.grib2 2026-05-01 08:45 298K
20260501T06Z_MSC_RDPS_DewPointDepression_IsbL-0275_RLatLon0.09_PT019H.grib2 2026-05-01 08:45 305K
20260501T06Z_MSC_RDPS_DewPointDepression_IsbL-0300_RLatLon0.09_PT019H.grib2 2026-05-01 08:45 322K
20260501T06Z_MSC_RDPS_DewPointDepression_IsbL-0350_RLatLon0.09_PT019H.grib2 2026-05-01 08:45 325K
20260501T06Z_MSC_RDPS_DewPointDepression_IsbL-0400_RLatLon0.09_PT019H.grib2 2026-05-01 08:45 337K
20260501T06Z_MSC_RDPS_DewPointDepression_IsbL-0450_RLatLon0.09_PT019H.grib2 2026-05-01 08:45 348K
20260501T06Z_MSC_RDPS_DewPointDepression_IsbL-0500_RLatLon0.09_PT019H.grib2 2026-05-01 08:45 360K
20260501T06Z_MSC_RDPS_DewPointDepression_IsbL-0550_RLatLon0.09_PT019H.grib2 2026-05-01 08:45 368K
20260501T06Z_MSC_RDPS_DewPointDepression_IsbL-0600_RLatLon0.09_PT019H.grib2 2026-05-01 08:45 381K
20260501T06Z_MSC_RDPS_DewPointDepression_IsbL-0650_RLatLon0.09_PT019H.grib2 2026-05-01 08:45 384K
20260501T06Z_MSC_RDPS_DewPointDepression_IsbL-0700_RLatLon0.09_PT019H.grib2 2026-05-01 08:45 392K
20260501T06Z_MSC_RDPS_DewPointDepression_IsbL-0750_RLatLon0.09_PT019H.grib2 2026-05-01 08:45 412K
20260501T06Z_MSC_RDPS_DewPointDepression_IsbL-0800_RLatLon0.09_PT019H.grib2 2026-05-01 08:45 446K
20260501T06Z_MSC_RDPS_DewPointDepression_IsbL-0850_RLatLon0.09_PT019H.grib2 2026-05-01 08:45 470K
20260501T06Z_MSC_RDPS_DewPointDepression_IsbL-0875_RLatLon0.09_PT019H.grib2 2026-05-01 08:45 471K
20260501T06Z_MSC_RDPS_DewPointDepression_IsbL-0900_RLatLon0.09_PT019H.grib2 2026-05-01 08:45 462K
20260501T06Z_MSC_RDPS_DewPointDepression_IsbL-0925_RLatLon0.09_PT019H.grib2 2026-05-01 08:45 449K
20260501T06Z_MSC_RDPS_DewPointDepression_IsbL-0950_RLatLon0.09_PT019H.grib2 2026-05-01 08:45 441K
20260501T06Z_MSC_RDPS_DewPointDepression_IsbL-0970_RLatLon0.09_PT019H.grib2 2026-05-01 08:45 432K
20260501T06Z_MSC_RDPS_DewPointDepression_IsbL-0985_RLatLon0.09_PT019H.grib2 2026-05-01 08:45 428K
20260501T06Z_MSC_RDPS_DewPointDepression_IsbL-1000_RLatLon0.09_PT019H.grib2 2026-05-01 08:45 421K
20260501T06Z_MSC_RDPS_DewPointDepression_IsbL-1015_RLatLon0.09_PT019H.grib2 2026-05-01 08:45 408K
20260501T06Z_MSC_RDPS_DewPoint_AGL-2m_RLatLon0.09_PT019H.grib2 2026-05-01 08:45 389K
20260501T06Z_MSC_RDPS_DownwardLongwaveRadiationFlux-Accum_Sfc_RLatLon0.09_PT019H.grib2 2026-05-01 08:45 407K
20260501T06Z_MSC_RDPS_DownwardShortwaveRadiationFlux-Accum_NTAtm_RLatLon0.09_PT019H.grib2 2026-05-01 08:45 99K
20260501T06Z_MSC_RDPS_DownwardShortwaveRadiationFlux-Accum_Sfc_RLatLon0.09_PT019H.grib2 2026-05-01 08:45 606K
20260501T06Z_MSC_RDPS_FreezingRain-Accum1h_Sfc_RLatLon0.09_PT019H.grib2 2026-05-01 08:45 24K
20260501T06Z_MSC_RDPS_FreezingRain-Accum_Sfc_RLatLon0.09_PT019H.grib2 2026-05-01 08:45 91K
20260501T06Z_MSC_RDPS_GeopotentialHeight_IsbL-0001_RLatLon0.09_PT019H.grib2 2026-05-01 08:45 306K
20260501T06Z_MSC_RDPS_GeopotentialHeight_IsbL-0005_RLatLon0.09_PT019H.grib2 2026-05-01 08:45 296K
20260501T06Z_MSC_RDPS_GeopotentialHeight_IsbL-0010_RLatLon0.09_PT019H.grib2 2026-05-01 08:45 298K
20260501T06Z_MSC_RDPS_GeopotentialHeight_IsbL-0020_RLatLon0.09_PT019H.grib2 2026-05-01 08:45 297K
20260501T06Z_MSC_RDPS_GeopotentialHeight_IsbL-0030_RLatLon0.09_PT019H.grib2 2026-05-01 08:45 299K
20260501T06Z_MSC_RDPS_GeopotentialHeight_IsbL-0050_RLatLon0.09_PT019H.grib2 2026-05-01 08:45 301K
20260501T06Z_MSC_RDPS_GeopotentialHeight_IsbL-0100_RLatLon0.09_PT019H.grib2 2026-05-01 08:45 281K
20260501T06Z_MSC_RDPS_GeopotentialHeight_IsbL-0150_RLatLon0.09_PT019H.grib2 2026-05-01 08:45 225K
20260501T06Z_MSC_RDPS_GeopotentialHeight_IsbL-0175_RLatLon0.09_PT019H.grib2 2026-05-01 08:45 229K
20260501T06Z_MSC_RDPS_GeopotentialHeight_IsbL-0200_RLatLon0.09_PT019H.grib2 2026-05-01 08:45 262K
20260501T06Z_MSC_RDPS_GeopotentialHeight_IsbL-0225_RLatLon0.09_PT019H.grib2 2026-05-01 08:45 263K
20260501T06Z_MSC_RDPS_GeopotentialHeight_IsbL-0250_RLatLon0.09_PT019H.grib2 2026-05-01 08:45 264K
20260501T06Z_MSC_RDPS_GeopotentialHeight_IsbL-0275_RLatLon0.09_PT019H.grib2 2026-05-01 08:45 263K
20260501T06Z_MSC_RDPS_GeopotentialHeight_IsbL-0300_RLatLon0.09_PT019H.grib2 2026-05-01 08:45 263K
20260501T06Z_MSC_RDPS_GeopotentialHeight_IsbL-0350_RLatLon0.09_PT019H.grib2 2026-05-01 08:45 229K
20260501T06Z_MSC_RDPS_GeopotentialHeight_IsbL-0400_RLatLon0.09_PT019H.grib2 2026-05-01 08:45 226K
20260501T06Z_MSC_RDPS_GeopotentialHeight_IsbL-0450_RLatLon0.09_PT019H.grib2 2026-05-01 08:45 294K
20260501T06Z_MSC_RDPS_GeopotentialHeight_IsbL-0500_RLatLon0.09_PT019H.grib2 2026-05-01 08:45 290K
20260501T06Z_MSC_RDPS_GeopotentialHeight_IsbL-0550_RLatLon0.09_PT019H.grib2 2026-05-01 08:45 286K
20260501T06Z_MSC_RDPS_GeopotentialHeight_IsbL-0600_RLatLon0.09_PT019H.grib2 2026-05-01 08:45 283K
20260501T06Z_MSC_RDPS_GeopotentialHeight_IsbL-0650_RLatLon0.09_PT019H.grib2 2026-05-01 08:45 254K
20260501T06Z_MSC_RDPS_GeopotentialHeight_IsbL-0700_RLatLon0.09_PT019H.grib2 2026-05-01 08:45 253K
20260501T06Z_MSC_RDPS_GeopotentialHeight_IsbL-0750_RLatLon0.09_PT019H.grib2 2026-05-01 08:45 336K
20260501T06Z_MSC_RDPS_GeopotentialHeight_IsbL-0800_RLatLon0.09_PT019H.grib2 2026-05-01 08:45 342K
20260501T06Z_MSC_RDPS_GeopotentialHeight_IsbL-0850_RLatLon0.09_PT019H.grib2 2026-05-01 08:45 349K
20260501T06Z_MSC_RDPS_GeopotentialHeight_IsbL-0875_RLatLon0.09_PT019H.grib2 2026-05-01 08:45 352K
20260501T06Z_MSC_RDPS_GeopotentialHeight_IsbL-0900_RLatLon0.09_PT019H.grib2 2026-05-01 08:45 387K
20260501T06Z_MSC_RDPS_GeopotentialHeight_IsbL-0925_RLatLon0.09_PT019H.grib2 2026-05-01 08:45 390K
20260501T06Z_MSC_RDPS_GeopotentialHeight_IsbL-0950_RLatLon0.09_PT019H.grib2 2026-05-01 08:45 393K
20260501T06Z_MSC_RDPS_GeopotentialHeight_IsbL-0970_RLatLon0.09_PT019H.grib2 2026-05-01 08:45 398K
20260501T06Z_MSC_RDPS_GeopotentialHeight_IsbL-0985_RLatLon0.09_PT019H.grib2 2026-05-01 08:45 407K
20260501T06Z_MSC_RDPS_GeopotentialHeight_IsbL-1000_RLatLon0.09_PT019H.grib2 2026-05-01 08:45 420K
20260501T06Z_MSC_RDPS_GeopotentialHeight_IsbL-1015_RLatLon0.09_PT019H.grib2 2026-05-01 08:45 435K
20260501T06Z_MSC_RDPS_Humidex_Sfc_RLatLon0.09_PT019H.grib2 2026-05-01 08:45 2.4M
20260501T06Z_MSC_RDPS_IcePellets-Accum1h_Sfc_RLatLon0.09_PT019H.grib2 2026-05-01 08:45 8.2K
20260501T06Z_MSC_RDPS_IcePellets-Accum_Sfc_RLatLon0.09_PT019H.grib2 2026-05-01 08:45 19K
20260501T06Z_MSC_RDPS_KIndex_Sfc_RLatLon0.09_PT019H.grib2 2026-05-01 08:45 2.4M
20260501T06Z_MSC_RDPS_LatentHeatNetFlux_Sfc_RLatLon0.09_PT019H.grib2 2026-05-01 08:45 252K
20260501T06Z_MSC_RDPS_LiftedIndex-MU-VT_IsbL-0500_RLatLon0.09_PT019H.grib2 2026-05-01 08:45 2.4M
20260501T06Z_MSC_RDPS_NetLongwaveRadiationFlux-Accum_Sfc_RLatLon0.09_PT019H.grib2 2026-05-01 08:45 547K
20260501T06Z_MSC_RDPS_NetShortwaveRadiationFlux-Accum_Sfc_RLatLon0.09_PT019H.grib2 2026-05-01 08:45 609K
20260501T06Z_MSC_RDPS_PlanetaryBoundaryLayerHeight_Sfc_RLatLon0.09_PT019H.grib2 2026-05-01 08:45 1.0M
20260501T06Z_MSC_RDPS_Precip-Accum1h_Sfc_RLatLon0.09_PT019H.grib2 2026-05-01 08:45 1.2M
20260501T06Z_MSC_RDPS_Precip-Accum_Sfc_RLatLon0.09_PT019H.grib2 2026-05-01 08:45 1.8M
20260501T06Z_MSC_RDPS_PrecipRate_Sfc_RLatLon0.09_PT019H.grib2 2026-05-01 08:45 170K
20260501T06Z_MSC_RDPS_PrecipType-Instant_Sfc_RLatLon0.09_PT019H.grib2 2026-05-01 08:45 558K
20260501T06Z_MSC_RDPS_Pressure-Trend3h_Sfc_RLatLon0.09_PT019H.grib2 2026-05-01 08:45 1.2M
20260501T06Z_MSC_RDPS_Pressure_MSL_RLatLon0.09_PT019H.grib2 2026-05-01 08:45 322K
20260501T06Z_MSC_RDPS_Pressure_PVU-1.5_RLatLon0.09_PT019H.grib2 2026-05-01 08:45 2.5M
20260501T06Z_MSC_RDPS_Pressure_PVU-1_RLatLon0.09_PT019H.grib2 2026-05-01 08:45 2.4M
20260501T06Z_MSC_RDPS_Pressure_PVU-2_RLatLon0.09_PT019H.grib2 2026-05-01 08:45 2.4M
20260501T06Z_MSC_RDPS_Pressure_Sfc_RLatLon0.09_PT019H.grib2 2026-05-01 08:45 497K
20260501T06Z_MSC_RDPS_RadiativeTemp_Sfc_RLatLon0.09_PT019H.grib2 2026-05-01 08:45 308K
20260501T06Z_MSC_RDPS_Rain-Accum1h_Sfc_RLatLon0.09_PT019H.grib2 2026-05-01 08:45 576K
20260501T06Z_MSC_RDPS_Rain-Accum_Sfc_RLatLon0.09_PT019H.grib2 2026-05-01 08:45 1.3M
20260501T06Z_MSC_RDPS_RelativeHumidity_AGL-2m_RLatLon0.09_PT019H.grib2 2026-05-01 08:45 1.0M
20260501T06Z_MSC_RDPS_RelativeHumidity_IsbL-0010_RLatLon0.09_PT019H.grib2 2026-05-01 08:45 629K
20260501T06Z_MSC_RDPS_RelativeHumidity_IsbL-0020_RLatLon0.09_PT019H.grib2 2026-05-01 08:45 675K
20260501T06Z_MSC_RDPS_RelativeHumidity_IsbL-0030_RLatLon0.09_PT019H.grib2 2026-05-01 08:45 605K
20260501T06Z_MSC_RDPS_RelativeHumidity_IsbL-0050_RLatLon0.09_PT019H.grib2 2026-05-01 08:45 310K
20260501T06Z_MSC_RDPS_RelativeHumidity_IsbL-0100_RLatLon0.09_PT019H.grib2 2026-05-01 08:45 275K
20260501T06Z_MSC_RDPS_RelativeHumidity_IsbL-0150_RLatLon0.09_PT019H.grib2 2026-05-01 08:45 411K
20260501T06Z_MSC_RDPS_RelativeHumidity_IsbL-0175_RLatLon0.09_PT019H.grib2 2026-05-01 08:45 478K
20260501T06Z_MSC_RDPS_RelativeHumidity_IsbL-0200_RLatLon0.09_PT019H.grib2 2026-05-01 08:45 558K
20260501T06Z_MSC_RDPS_RelativeHumidity_IsbL-0225_RLatLon0.09_PT019H.grib2 2026-05-01 08:45 617K
20260501T06Z_MSC_RDPS_RelativeHumidity_IsbL-0250_RLatLon0.09_PT019H.grib2 2026-05-01 08:45 685K
20260501T06Z_MSC_RDPS_RelativeHumidity_IsbL-0275_RLatLon0.09_PT019H.grib2 2026-05-01 08:45 707K
20260501T06Z_MSC_RDPS_RelativeHumidity_IsbL-0300_RLatLon0.09_PT019H.grib2 2026-05-01 08:45 747K
20260501T06Z_MSC_RDPS_RelativeHumidity_IsbL-0350_RLatLon0.09_PT019H.grib2 2026-05-01 08:45 765K
20260501T06Z_MSC_RDPS_RelativeHumidity_IsbL-0400_RLatLon0.09_PT019H.grib2 2026-05-01 08:45 785K
20260501T06Z_MSC_RDPS_RelativeHumidity_IsbL-0450_RLatLon0.09_PT019H.grib2 2026-05-01 08:45 799K
20260501T06Z_MSC_RDPS_RelativeHumidity_IsbL-0500_RLatLon0.09_PT019H.grib2 2026-05-01 08:45 810K
20260501T06Z_MSC_RDPS_RelativeHumidity_IsbL-0550_RLatLon0.09_PT019H.grib2 2026-05-01 08:45 841K
20260501T06Z_MSC_RDPS_RelativeHumidity_IsbL-0600_RLatLon0.09_PT019H.grib2 2026-05-01 08:45 860K
20260501T06Z_MSC_RDPS_RelativeHumidity_IsbL-0650_RLatLon0.09_PT019H.grib2 2026-05-01 08:45 858K
20260501T06Z_MSC_RDPS_RelativeHumidity_IsbL-0700_RLatLon0.09_PT019H.grib2 2026-05-01 08:45 886K
20260501T06Z_MSC_RDPS_RelativeHumidity_IsbL-0750_RLatLon0.09_PT019H.grib2 2026-05-01 08:45 928K
20260501T06Z_MSC_RDPS_RelativeHumidity_IsbL-0800_RLatLon0.09_PT019H.grib2 2026-05-01 08:45 1.0M
20260501T06Z_MSC_RDPS_RelativeHumidity_IsbL-0850_RLatLon0.09_PT019H.grib2 2026-05-01 08:45 1.0M
20260501T06Z_MSC_RDPS_RelativeHumidity_IsbL-0875_RLatLon0.09_PT019H.grib2 2026-05-01 08:45 1.0M
20260501T06Z_MSC_RDPS_RelativeHumidity_IsbL-0900_RLatLon0.09_PT019H.grib2 2026-05-01 08:45 1.1M
20260501T06Z_MSC_RDPS_RelativeHumidity_IsbL-0925_RLatLon0.09_PT019H.grib2 2026-05-01 08:45 1.1M
20260501T06Z_MSC_RDPS_RelativeHumidity_IsbL-0950_RLatLon0.09_PT019H.grib2 2026-05-01 08:45 1.0M
20260501T06Z_MSC_RDPS_RelativeHumidity_IsbL-0970_RLatLon0.09_PT019H.grib2 2026-05-01 08:45 1.0M
20260501T06Z_MSC_RDPS_RelativeHumidity_IsbL-0985_RLatLon0.09_PT019H.grib2 2026-05-01 08:45 1.0M
20260501T06Z_MSC_RDPS_RelativeHumidity_IsbL-1000_RLatLon0.09_PT019H.grib2 2026-05-01 08:45 1.0M
20260501T06Z_MSC_RDPS_RelativeHumidity_IsbL-1015_RLatLon0.09_PT019H.grib2 2026-05-01 08:45 1.0M
20260501T06Z_MSC_RDPS_Runoff-Accum_Sfc_RLatLon0.09_PT019H.grib2 2026-05-01 08:45 49K
20260501T06Z_MSC_RDPS_SWEATIndex_Sfc_RLatLon0.09_PT019H.grib2 2026-05-01 08:45 2.4M
20260501T06Z_MSC_RDPS_SeeingIndex_EAtm_RLatLon0.09_PT019H.grib2 2026-05-01 08:45 1.0M
20260501T06Z_MSC_RDPS_SensibleHeatNetFlux_Sfc_RLatLon0.09_PT019H.grib2 2026-05-01 08:45 296K
20260501T06Z_MSC_RDPS_ShowalterIndex_IsbL-0500_RLatLon0.09_PT019H.grib2 2026-05-01 08:45 2.6M
20260501T06Z_MSC_RDPS_SkyTransparencyIndex_EAtm_RLatLon0.09_PT019H.grib2 2026-05-01 08:45 710K
20260501T06Z_MSC_RDPS_Snow-Accum1h_Sfc_RLatLon0.09_PT019H.grib2 2026-05-01 08:45 365K
20260501T06Z_MSC_RDPS_Snow-Accum_Sfc_RLatLon0.09_PT019H.grib2 2026-05-01 08:45 638K
20260501T06Z_MSC_RDPS_SnowDensity_Sfc_RLatLon0.09_PT019H.grib2 2026-05-01 08:45 168K
20260501T06Z_MSC_RDPS_SnowDepth_Sfc_RLatLon0.09_PT019H.grib2 2026-05-01 08:45 663K
20260501T06Z_MSC_RDPS_SoilTemp_DBS-0to10cm_RLatLon0.09_PT019H.grib2 2026-05-01 08:45 224K
20260501T06Z_MSC_RDPS_SoilTemp_Sfc_RLatLon0.09_PT019H.grib2 2026-05-01 08:45 264K
20260501T06Z_MSC_RDPS_SoilVolumetricIceContent_Sfc_RLatLon0.09_PT019H.grib2 2026-05-01 08:45 160K
20260501T06Z_MSC_RDPS_SoilVolumetricWaterContent_DBS-0to10cm_RLatLon0.09_PT019H.grib2 2026-05-01 08:45 270K
20260501T06Z_MSC_RDPS_SoilVolumetricWaterContent_DBS-0to1cm_RLatLon0.09_PT019H.grib2 2026-05-01 08:45 337K
20260501T06Z_MSC_RDPS_SpecificHumidity_AGL-120m_RLatLon0.09_PT019H.grib2 2026-05-01 08:45 482K
20260501T06Z_MSC_RDPS_SpecificHumidity_AGL-2m_RLatLon0.09_PT019H.grib2 2026-05-01 08:45 651K
20260501T06Z_MSC_RDPS_SpecificHumidity_AGL-40m_RLatLon0.09_PT019H.grib2 2026-05-01 08:45 487K
20260501T06Z_MSC_RDPS_SpecificHumidity_AGL-80m_RLatLon0.09_PT019H.grib2 2026-05-01 08:45 483K
20260501T06Z_MSC_RDPS_SpecificHumidity_IsbL-0001_RLatLon0.09_PT019H.grib2 2026-05-01 08:45 399K
20260501T06Z_MSC_RDPS_SpecificHumidity_IsbL-0005_RLatLon0.09_PT019H.grib2 2026-05-01 08:45 362K
20260501T06Z_MSC_RDPS_SpecificHumidity_IsbL-0010_RLatLon0.09_PT019H.grib2 2026-05-01 08:45 395K
20260501T06Z_MSC_RDPS_SpecificHumidity_IsbL-0020_RLatLon0.09_PT019H.grib2 2026-05-01 08:45 382K
20260501T06Z_MSC_RDPS_SpecificHumidity_IsbL-0030_RLatLon0.09_PT019H.grib2 2026-05-01 08:45 374K
20260501T06Z_MSC_RDPS_SpecificHumidity_IsbL-0050_RLatLon0.09_PT019H.grib2 2026-05-01 08:45 484K
20260501T06Z_MSC_RDPS_SpecificHumidity_IsbL-0100_RLatLon0.09_PT019H.grib2 2026-05-01 08:45 424K
20260501T06Z_MSC_RDPS_SpecificHumidity_IsbL-0150_RLatLon0.09_PT019H.grib2 2026-05-01 08:45 479K
20260501T06Z_MSC_RDPS_SpecificHumidity_IsbL-0175_RLatLon0.09_PT019H.grib2 2026-05-01 08:45 437K
20260501T06Z_MSC_RDPS_SpecificHumidity_IsbL-0200_RLatLon0.09_PT019H.grib2 2026-05-01 08:45 452K
20260501T06Z_MSC_RDPS_SpecificHumidity_IsbL-0225_RLatLon0.09_PT019H.grib2 2026-05-01 08:45 452K
20260501T06Z_MSC_RDPS_SpecificHumidity_IsbL-0250_RLatLon0.09_PT019H.grib2 2026-05-01 08:45 559K
20260501T06Z_MSC_RDPS_SpecificHumidity_IsbL-0275_RLatLon0.09_PT019H.grib2 2026-05-01 08:45 473K
20260501T06Z_MSC_RDPS_SpecificHumidity_IsbL-0300_RLatLon0.09_PT019H.grib2 2026-05-01 08:45 569K
20260501T06Z_MSC_RDPS_SpecificHumidity_IsbL-0350_RLatLon0.09_PT019H.grib2 2026-05-01 08:45 560K
20260501T06Z_MSC_RDPS_SpecificHumidity_IsbL-0400_RLatLon0.09_PT019H.grib2 2026-05-01 08:45 517K
20260501T06Z_MSC_RDPS_SpecificHumidity_IsbL-0450_RLatLon0.09_PT019H.grib2 2026-05-01 08:45 574K
20260501T06Z_MSC_RDPS_SpecificHumidity_IsbL-0500_RLatLon0.09_PT019H.grib2 2026-05-01 08:45 514K
20260501T06Z_MSC_RDPS_SpecificHumidity_IsbL-0550_RLatLon0.09_PT019H.grib2 2026-05-01 08:45 589K
20260501T06Z_MSC_RDPS_SpecificHumidity_IsbL-0600_RLatLon0.09_PT019H.grib2 2026-05-01 08:45 642K
20260501T06Z_MSC_RDPS_SpecificHumidity_IsbL-0650_RLatLon0.09_PT019H.grib2 2026-05-01 08:45 557K
20260501T06Z_MSC_RDPS_SpecificHumidity_IsbL-0700_RLatLon0.09_PT019H.grib2 2026-05-01 08:45 596K
20260501T06Z_MSC_RDPS_SpecificHumidity_IsbL-0750_RLatLon0.09_PT019H.grib2 2026-05-01 08:45 653K
20260501T06Z_MSC_RDPS_SpecificHumidity_IsbL-0800_RLatLon0.09_PT019H.grib2 2026-05-01 08:45 736K
20260501T06Z_MSC_RDPS_SpecificHumidity_IsbL-0850_RLatLon0.09_PT019H.grib2 2026-05-01 08:45 806K
20260501T06Z_MSC_RDPS_SpecificHumidity_IsbL-0875_RLatLon0.09_PT019H.grib2 2026-05-01 08:45 829K
20260501T06Z_MSC_RDPS_SpecificHumidity_IsbL-0900_RLatLon0.09_PT019H.grib2 2026-05-01 08:45 843K
20260501T06Z_MSC_RDPS_SpecificHumidity_IsbL-0925_RLatLon0.09_PT019H.grib2 2026-05-01 08:45 844K
20260501T06Z_MSC_RDPS_SpecificHumidity_IsbL-0950_RLatLon0.09_PT019H.grib2 2026-05-01 08:45 705K
20260501T06Z_MSC_RDPS_SpecificHumidity_IsbL-0970_RLatLon0.09_PT019H.grib2 2026-05-01 08:45 692K
20260501T06Z_MSC_RDPS_SpecificHumidity_IsbL-0985_RLatLon0.09_PT019H.grib2 2026-05-01 08:45 683K
20260501T06Z_MSC_RDPS_SpecificHumidity_IsbL-1000_RLatLon0.09_PT019H.grib2 2026-05-01 08:45 674K
20260501T06Z_MSC_RDPS_SpecificHumidity_IsbL-1015_RLatLon0.09_PT019H.grib2 2026-05-01 08:45 662K
20260501T06Z_MSC_RDPS_SpecificHumidity_Sfc_RLatLon0.09_PT019H.grib2 2026-05-01 08:45 326K
20260501T06Z_MSC_RDPS_StormRelativeHelicity_EtaL-10000_RLatLon0.09_PT019H.grib2 2026-05-01 08:45 1.1M
20260501T06Z_MSC_RDPS_StormSeverityIndex_EtaL-10000_RLatLon0.09_PT019H.grib2 2026-05-01 08:45 1.1M
20260501T06Z_MSC_RDPS_Thickness_IsbL-0850to0700_RLatLon0.09_PT019H.grib2 2026-05-01 08:45 174K
20260501T06Z_MSC_RDPS_Thickness_IsbL-1000to0500_RLatLon0.09_PT019H.grib2 2026-05-01 08:45 195K
20260501T06Z_MSC_RDPS_Thickness_IsbL-1000to0850_RLatLon0.09_PT019H.grib2 2026-05-01 08:45 182K
20260501T06Z_MSC_RDPS_TotalCloudCover_Sfc_RLatLon0.09_PT019H.grib2 2026-05-01 08:45 643K
20260501T06Z_MSC_RDPS_TotalTotalsIndex_Sfc_RLatLon0.09_PT019H.grib2 2026-05-01 08:45 2.3M
20260501T06Z_MSC_RDPS_UVIndex-ClearSky_Sfc_RLatLon0.09_PT019H.grib2 2026-05-01 08:45 142K
20260501T06Z_MSC_RDPS_UVIndex_Sfc_RLatLon0.09_PT019H.grib2 2026-05-01 08:45 314K
20260501T06Z_MSC_RDPS_UpwardLongwaveRadiationFlux_NTAtm_RLatLon0.09_PT019H.grib2 2026-05-01 08:45 484K
20260501T06Z_MSC_RDPS_UpwardShortwaveRadiationFlux_NTAtm_RLatLon0.09_PT019H.grib2 2026-05-01 08:45 284K
20260501T06Z_MSC_RDPS_VerticalVelocity_IsbL-0250_RLatLon0.09_PT019H.grib2 2026-05-01 08:45 542K
20260501T06Z_MSC_RDPS_VerticalVelocity_IsbL-0500_RLatLon0.09_PT019H.grib2 2026-05-01 08:45 536K
20260501T06Z_MSC_RDPS_VerticalVelocity_IsbL-0700_RLatLon0.09_PT019H.grib2 2026-05-01 08:45 619K
20260501T06Z_MSC_RDPS_VerticalVelocity_IsbL-0850_RLatLon0.09_PT019H.grib2 2026-05-01 08:45 707K
20260501T06Z_MSC_RDPS_VerticalWindShear_EtaL-6500_RLatLon0.09_PT019H.grib2 2026-05-01 08:45 1.2M
20260501T06Z_MSC_RDPS_WindChill_Sfc_RLatLon0.09_PT019H.grib2 2026-05-01 08:45 1.1M
20260501T06Z_MSC_RDPS_WindDir_AGL-10m_RLatLon0.09_PT019H.grib2 2026-05-01 08:45 945K
20260501T06Z_MSC_RDPS_WindDir_AGL-120m_RLatLon0.09_PT019H.grib2 2026-05-01 08:45 593K
20260501T06Z_MSC_RDPS_WindDir_AGL-40m_RLatLon0.09_PT019H.grib2 2026-05-01 08:45 619K
20260501T06Z_MSC_RDPS_WindDir_AGL-80m_RLatLon0.09_PT019H.grib2 2026-05-01 08:45 603K
20260501T06Z_MSC_RDPS_WindDir_IsbL-0001_RLatLon0.09_PT019H.grib2 2026-05-01 08:45 313K
20260501T06Z_MSC_RDPS_WindDir_IsbL-0005_RLatLon0.09_PT019H.grib2 2026-05-01 08:45 357K
20260501T06Z_MSC_RDPS_WindDir_IsbL-0010_RLatLon0.09_PT019H.grib2 2026-05-01 08:45 382K
20260501T06Z_MSC_RDPS_WindDir_IsbL-0020_RLatLon0.09_PT019H.grib2 2026-05-01 08:45 434K
20260501T06Z_MSC_RDPS_WindDir_IsbL-0030_RLatLon0.09_PT019H.grib2 2026-05-01 08:45 409K
20260501T06Z_MSC_RDPS_WindDir_IsbL-0050_RLatLon0.09_PT019H.grib2 2026-05-01 08:45 412K
20260501T06Z_MSC_RDPS_WindDir_IsbL-0100_RLatLon0.09_PT019H.grib2 2026-05-01 08:45 413K
20260501T06Z_MSC_RDPS_WindDir_IsbL-0150_RLatLon0.09_PT019H.grib2 2026-05-01 08:45 412K
20260501T06Z_MSC_RDPS_WindDir_IsbL-0175_RLatLon0.09_PT019H.grib2 2026-05-01 08:45 434K
20260501T06Z_MSC_RDPS_WindDir_IsbL-0200_RLatLon0.09_PT019H.grib2 2026-05-01 08:45 447K
20260501T06Z_MSC_RDPS_WindDir_IsbL-0225_RLatLon0.09_PT019H.grib2 2026-05-01 08:45 448K
20260501T06Z_MSC_RDPS_WindDir_IsbL-0250_RLatLon0.09_PT019H.grib2 2026-05-01 08:45 449K
20260501T06Z_MSC_RDPS_WindDir_IsbL-0275_RLatLon0.09_PT019H.grib2 2026-05-01 08:45 472K
20260501T06Z_MSC_RDPS_WindDir_IsbL-0300_RLatLon0.09_PT019H.grib2 2026-05-01 08:45 469K
20260501T06Z_MSC_RDPS_WindDir_IsbL-0350_RLatLon0.09_PT019H.grib2 2026-05-01 08:45 490K
20260501T06Z_MSC_RDPS_WindDir_IsbL-0400_RLatLon0.09_PT019H.grib2 2026-05-01 08:45 508K
20260501T06Z_MSC_RDPS_WindDir_IsbL-0450_RLatLon0.09_PT019H.grib2 2026-05-01 08:45 527K
20260501T06Z_MSC_RDPS_WindDir_IsbL-0500_RLatLon0.09_PT019H.grib2 2026-05-01 08:45 542K
20260501T06Z_MSC_RDPS_WindDir_IsbL-0550_RLatLon0.09_PT019H.grib2 2026-05-01 08:45 560K
20260501T06Z_MSC_RDPS_WindDir_IsbL-0600_RLatLon0.09_PT019H.grib2 2026-05-01 08:45 586K
20260501T06Z_MSC_RDPS_WindDir_IsbL-0650_RLatLon0.09_PT019H.grib2 2026-05-01 08:45 627K
20260501T06Z_MSC_RDPS_WindDir_IsbL-0700_RLatLon0.09_PT019H.grib2 2026-05-01 08:45 674K
20260501T06Z_MSC_RDPS_WindDir_IsbL-0750_RLatLon0.09_PT019H.grib2 2026-05-01 08:45 721K
20260501T06Z_MSC_RDPS_WindDir_IsbL-0800_RLatLon0.09_PT019H.grib2 2026-05-01 08:45 787K
20260501T06Z_MSC_RDPS_WindDir_IsbL-0850_RLatLon0.09_PT019H.grib2 2026-05-01 08:45 860K
20260501T06Z_MSC_RDPS_WindDir_IsbL-0875_RLatLon0.09_PT019H.grib2 2026-05-01 08:45 881K
20260501T06Z_MSC_RDPS_WindDir_IsbL-0900_RLatLon0.09_PT019H.grib2 2026-05-01 08:45 894K
20260501T06Z_MSC_RDPS_WindDir_IsbL-0925_RLatLon0.09_PT019H.grib2 2026-05-01 08:45 900K
20260501T06Z_MSC_RDPS_WindDir_IsbL-0950_RLatLon0.09_PT019H.grib2 2026-05-01 08:45 897K
20260501T06Z_MSC_RDPS_WindDir_IsbL-0970_RLatLon0.09_PT019H.grib2 2026-05-01 08:45 901K
20260501T06Z_MSC_RDPS_WindDir_IsbL-0985_RLatLon0.09_PT019H.grib2 2026-05-01 08:45 910K
20260501T06Z_MSC_RDPS_WindDir_IsbL-1000_RLatLon0.09_PT019H.grib2 2026-05-01 08:45 923K
20260501T06Z_MSC_RDPS_WindDir_IsbL-1015_RLatLon0.09_PT019H.grib2 2026-05-01 08:45 938K
20260501T06Z_MSC_RDPS_WindGust-Max_AGL-10m_RLatLon0.09_PT019H.grib2 2026-05-01 08:45 1.0M
20260501T06Z_MSC_RDPS_WindGust-Min_AGL-10m_RLatLon0.09_PT019H.grib2 2026-05-01 08:45 959K
20260501T06Z_MSC_RDPS_WindGust_AGL-10m_RLatLon0.09_PT019H.grib2 2026-05-01 08:45 1.0M
20260501T06Z_MSC_RDPS_WindSpeed_AGL-10m_RLatLon0.09_PT019H.grib2 2026-05-01 08:45 828K
20260501T06Z_MSC_RDPS_WindSpeed_AGL-120m_RLatLon0.09_PT019H.grib2 2026-05-01 08:45 528K
20260501T06Z_MSC_RDPS_WindSpeed_AGL-40m_RLatLon0.09_PT019H.grib2 2026-05-01 08:45 531K
20260501T06Z_MSC_RDPS_WindSpeed_AGL-80m_RLatLon0.09_PT019H.grib2 2026-05-01 08:45 529K
20260501T06Z_MSC_RDPS_WindSpeed_IsbL-0001_RLatLon0.09_PT019H.grib2 2026-05-01 08:45 249K
20260501T06Z_MSC_RDPS_WindSpeed_IsbL-0005_RLatLon0.09_PT019H.grib2 2026-05-01 08:45 378K
20260501T06Z_MSC_RDPS_WindSpeed_IsbL-0010_RLatLon0.09_PT019H.grib2 2026-05-01 08:45 357K
20260501T06Z_MSC_RDPS_WindSpeed_IsbL-0020_RLatLon0.09_PT019H.grib2 2026-05-01 08:45 317K
20260501T06Z_MSC_RDPS_WindSpeed_IsbL-0030_RLatLon0.09_PT019H.grib2 2026-05-01 08:45 314K
20260501T06Z_MSC_RDPS_WindSpeed_IsbL-0050_RLatLon0.09_PT019H.grib2 2026-05-01 08:45 344K
20260501T06Z_MSC_RDPS_WindSpeed_IsbL-0100_RLatLon0.09_PT019H.grib2 2026-05-01 08:45 474K
20260501T06Z_MSC_RDPS_WindSpeed_IsbL-0150_RLatLon0.09_PT019H.grib2 2026-05-01 08:45 382K
20260501T06Z_MSC_RDPS_WindSpeed_IsbL-0175_RLatLon0.09_PT019H.grib2 2026-05-01 08:45 427K
20260501T06Z_MSC_RDPS_WindSpeed_IsbL-0200_RLatLon0.09_PT019H.grib2 2026-05-01 08:45 442K
20260501T06Z_MSC_RDPS_WindSpeed_IsbL-0225_RLatLon0.09_PT019H.grib2 2026-05-01 08:45 446K
20260501T06Z_MSC_RDPS_WindSpeed_IsbL-0250_RLatLon0.09_PT019H.grib2 2026-05-01 08:45 445K
20260501T06Z_MSC_RDPS_WindSpeed_IsbL-0275_RLatLon0.09_PT019H.grib2 2026-05-01 08:45 462K
20260501T06Z_MSC_RDPS_WindSpeed_IsbL-0300_RLatLon0.09_PT019H.grib2 2026-05-01 08:45 461K
20260501T06Z_MSC_RDPS_WindSpeed_IsbL-0350_RLatLon0.09_PT019H.grib2 2026-05-01 08:45 472K
20260501T06Z_MSC_RDPS_WindSpeed_IsbL-0400_RLatLon0.09_PT019H.grib2 2026-05-01 08:45 474K
20260501T06Z_MSC_RDPS_WindSpeed_IsbL-0450_RLatLon0.09_PT019H.grib2 2026-05-01 08:45 458K
20260501T06Z_MSC_RDPS_WindSpeed_IsbL-0500_RLatLon0.09_PT019H.grib2 2026-05-01 08:45 462K
20260501T06Z_MSC_RDPS_WindSpeed_IsbL-0550_RLatLon0.09_PT019H.grib2 2026-05-01 08:45 583K
20260501T06Z_MSC_RDPS_WindSpeed_IsbL-0600_RLatLon0.09_PT019H.grib2 2026-05-01 08:45 591K
20260501T06Z_MSC_RDPS_WindSpeed_IsbL-0650_RLatLon0.09_PT019H.grib2 2026-05-01 08:45 612K
20260501T06Z_MSC_RDPS_WindSpeed_IsbL-0700_RLatLon0.09_PT019H.grib2 2026-05-01 08:45 680K
20260501T06Z_MSC_RDPS_WindSpeed_IsbL-0750_RLatLon0.09_PT019H.grib2 2026-05-01 08:45 709K
20260501T06Z_MSC_RDPS_WindSpeed_IsbL-0800_RLatLon0.09_PT019H.grib2 2026-05-01 08:45 751K
20260501T06Z_MSC_RDPS_WindSpeed_IsbL-0850_RLatLon0.09_PT019H.grib2 2026-05-01 08:45 806K
20260501T06Z_MSC_RDPS_WindSpeed_IsbL-0875_RLatLon0.09_PT019H.grib2 2026-05-01 08:45 825K
20260501T06Z_MSC_RDPS_WindSpeed_IsbL-0900_RLatLon0.09_PT019H.grib2 2026-05-01 08:45 839K
20260501T06Z_MSC_RDPS_WindSpeed_IsbL-0925_RLatLon0.09_PT019H.grib2 2026-05-01 08:45 846K
20260501T06Z_MSC_RDPS_WindSpeed_IsbL-0950_RLatLon0.09_PT019H.grib2 2026-05-01 08:45 848K
20260501T06Z_MSC_RDPS_WindSpeed_IsbL-0970_RLatLon0.09_PT019H.grib2 2026-05-01 08:45 850K
20260501T06Z_MSC_RDPS_WindSpeed_IsbL-0985_RLatLon0.09_PT019H.grib2 2026-05-01 08:45 846K
20260501T06Z_MSC_RDPS_WindSpeed_IsbL-1000_RLatLon0.09_PT019H.grib2 2026-05-01 08:45 840K
20260501T06Z_MSC_RDPS_WindSpeed_IsbL-1015_RLatLon0.09_PT019H.grib2 2026-05-01 08:45 830K
20260501T06Z_MSC_RDPS_WindU_AGL-10m_RLatLon0.09_PT019H.grib2 2026-05-01 08:45 426K
20260501T06Z_MSC_RDPS_WindU_AGL-120m_RLatLon0.09_PT019H.grib2 2026-05-01 08:45 527K
20260501T06Z_MSC_RDPS_WindU_AGL-40m_RLatLon0.09_PT019H.grib2 2026-05-01 08:45 530K
20260501T06Z_MSC_RDPS_WindU_AGL-80m_RLatLon0.09_PT019H.grib2 2026-05-01 08:45 529K
20260501T06Z_MSC_RDPS_WindU_IsbL-0001_RLatLon0.09_PT019H.grib2 2026-05-01 08:45 239K
20260501T06Z_MSC_RDPS_WindU_IsbL-0005_RLatLon0.09_PT019H.grib2 2026-05-01 08:45 282K
20260501T06Z_MSC_RDPS_WindU_IsbL-0010_RLatLon0.09_PT019H.grib2 2026-05-01 08:45 291K
20260501T06Z_MSC_RDPS_WindU_IsbL-0020_RLatLon0.09_PT019H.grib2 2026-05-01 08:45 307K
20260501T06Z_MSC_RDPS_WindU_IsbL-0030_RLatLon0.09_PT019H.grib2 2026-05-01 08:45 308K
20260501T06Z_MSC_RDPS_WindU_IsbL-0050_RLatLon0.09_PT019H.grib2 2026-05-01 08:45 338K
20260501T06Z_MSC_RDPS_WindU_IsbL-0100_RLatLon0.09_PT019H.grib2 2026-05-01 08:45 428K
20260501T06Z_MSC_RDPS_WindU_IsbL-0150_RLatLon0.09_PT019H.grib2 2026-05-01 08:45 396K
20260501T06Z_MSC_RDPS_WindU_IsbL-0175_RLatLon0.09_PT019H.grib2 2026-05-01 08:45 419K
20260501T06Z_MSC_RDPS_WindU_IsbL-0200_RLatLon0.09_PT019H.grib2 2026-05-01 08:45 336K
20260501T06Z_MSC_RDPS_WindU_IsbL-0225_RLatLon0.09_PT019H.grib2 2026-05-01 08:45 339K
20260501T06Z_MSC_RDPS_WindU_IsbL-0250_RLatLon0.09_PT019H.grib2 2026-05-01 08:45 338K
20260501T06Z_MSC_RDPS_WindU_IsbL-0275_RLatLon0.09_PT019H.grib2 2026-05-01 08:45 352K
20260501T06Z_MSC_RDPS_WindU_IsbL-0300_RLatLon0.09_PT019H.grib2 2026-05-01 08:45 349K
20260501T06Z_MSC_RDPS_WindU_IsbL-0350_RLatLon0.09_PT019H.grib2 2026-05-01 08:45 357K
20260501T06Z_MSC_RDPS_WindU_IsbL-0400_RLatLon0.09_PT019H.grib2 2026-05-01 08:45 462K
20260501T06Z_MSC_RDPS_WindU_IsbL-0450_RLatLon0.09_PT019H.grib2 2026-05-01 08:45 464K
20260501T06Z_MSC_RDPS_WindU_IsbL-0500_RLatLon0.09_PT019H.grib2 2026-05-01 08:45 469K
20260501T06Z_MSC_RDPS_WindU_IsbL-0550_RLatLon0.09_PT019H.grib2 2026-05-01 08:45 473K
20260501T06Z_MSC_RDPS_WindU_IsbL-0600_RLatLon0.09_PT019H.grib2 2026-05-01 08:45 482K
20260501T06Z_MSC_RDPS_WindU_IsbL-0650_RLatLon0.09_PT019H.grib2 2026-05-01 08:45 483K
20260501T06Z_MSC_RDPS_WindU_IsbL-0700_RLatLon0.09_PT019H.grib2 2026-05-01 08:45 505K
20260501T06Z_MSC_RDPS_WindU_IsbL-0750_RLatLon0.09_PT019H.grib2 2026-05-01 08:45 531K
20260501T06Z_MSC_RDPS_WindU_IsbL-0800_RLatLon0.09_PT019H.grib2 2026-05-01 08:45 567K
20260501T06Z_MSC_RDPS_WindU_IsbL-0850_RLatLon0.09_PT019H.grib2 2026-05-01 08:45 614K
20260501T06Z_MSC_RDPS_WindU_IsbL-0875_RLatLon0.09_PT019H.grib2 2026-05-01 08:45 631K
20260501T06Z_MSC_RDPS_WindU_IsbL-0900_RLatLon0.09_PT019H.grib2 2026-05-01 08:45 641K
20260501T06Z_MSC_RDPS_WindU_IsbL-0925_RLatLon0.09_PT019H.grib2 2026-05-01 08:45 649K
20260501T06Z_MSC_RDPS_WindU_IsbL-0950_RLatLon0.09_PT019H.grib2 2026-05-01 08:45 648K
20260501T06Z_MSC_RDPS_WindU_IsbL-0970_RLatLon0.09_PT019H.grib2 2026-05-01 08:45 647K
20260501T06Z_MSC_RDPS_WindU_IsbL-0985_RLatLon0.09_PT019H.grib2 2026-05-01 08:45 643K
20260501T06Z_MSC_RDPS_WindU_IsbL-1000_RLatLon0.09_PT019H.grib2 2026-05-01 08:45 776K
20260501T06Z_MSC_RDPS_WindU_IsbL-1015_RLatLon0.09_PT019H.grib2 2026-05-01 08:45 815K
20260501T06Z_MSC_RDPS_WindV_AGL-10m_RLatLon0.09_PT019H.grib2 2026-05-01 08:45 424K
20260501T06Z_MSC_RDPS_WindV_AGL-120m_RLatLon0.09_PT019H.grib2 2026-05-01 08:45 524K
20260501T06Z_MSC_RDPS_WindV_AGL-40m_RLatLon0.09_PT019H.grib2 2026-05-01 08:45 527K
20260501T06Z_MSC_RDPS_WindV_AGL-80m_RLatLon0.09_PT019H.grib2 2026-05-01 08:45 525K
20260501T06Z_MSC_RDPS_WindV_IsbL-0001_RLatLon0.09_PT019H.grib2 2026-05-01 08:45 239K
20260501T06Z_MSC_RDPS_WindV_IsbL-0005_RLatLon0.09_PT019H.grib2 2026-05-01 08:45 283K
20260501T06Z_MSC_RDPS_WindV_IsbL-0010_RLatLon0.09_PT019H.grib2 2026-05-01 08:45 294K
20260501T06Z_MSC_RDPS_WindV_IsbL-0020_RLatLon0.09_PT019H.grib2 2026-05-01 08:45 310K
20260501T06Z_MSC_RDPS_WindV_IsbL-0030_RLatLon0.09_PT019H.grib2 2026-05-01 08:45 310K
20260501T06Z_MSC_RDPS_WindV_IsbL-0050_RLatLon0.09_PT019H.grib2 2026-05-01 08:45 338K
20260501T06Z_MSC_RDPS_WindV_IsbL-0100_RLatLon0.09_PT019H.grib2 2026-05-01 08:45 426K
20260501T06Z_MSC_RDPS_WindV_IsbL-0150_RLatLon0.09_PT019H.grib2 2026-05-01 08:45 396K
20260501T06Z_MSC_RDPS_WindV_IsbL-0175_RLatLon0.09_PT019H.grib2 2026-05-01 08:45 419K
20260501T06Z_MSC_RDPS_WindV_IsbL-0200_RLatLon0.09_PT019H.grib2 2026-05-01 08:45 335K
20260501T06Z_MSC_RDPS_WindV_IsbL-0225_RLatLon0.09_PT019H.grib2 2026-05-01 08:45 337K
20260501T06Z_MSC_RDPS_WindV_IsbL-0250_RLatLon0.09_PT019H.grib2 2026-05-01 08:45 335K
20260501T06Z_MSC_RDPS_WindV_IsbL-0275_RLatLon0.09_PT019H.grib2 2026-05-01 08:45 350K
20260501T06Z_MSC_RDPS_WindV_IsbL-0300_RLatLon0.09_PT019H.grib2 2026-05-01 08:45 347K
20260501T06Z_MSC_RDPS_WindV_IsbL-0350_RLatLon0.09_PT019H.grib2 2026-05-01 08:45 354K
20260501T06Z_MSC_RDPS_WindV_IsbL-0400_RLatLon0.09_PT019H.grib2 2026-05-01 08:45 459K
20260501T06Z_MSC_RDPS_WindV_IsbL-0450_RLatLon0.09_PT019H.grib2 2026-05-01 08:45 461K
20260501T06Z_MSC_RDPS_WindV_IsbL-0500_RLatLon0.09_PT019H.grib2 2026-05-01 08:45 466K
20260501T06Z_MSC_RDPS_WindV_IsbL-0550_RLatLon0.09_PT019H.grib2 2026-05-01 08:45 469K
20260501T06Z_MSC_RDPS_WindV_IsbL-0600_RLatLon0.09_PT019H.grib2 2026-05-01 08:45 461K
20260501T06Z_MSC_RDPS_WindV_IsbL-0650_RLatLon0.09_PT019H.grib2 2026-05-01 08:45 479K
20260501T06Z_MSC_RDPS_WindV_IsbL-0700_RLatLon0.09_PT019H.grib2 2026-05-01 08:45 502K
20260501T06Z_MSC_RDPS_WindV_IsbL-0750_RLatLon0.09_PT019H.grib2 2026-05-01 08:45 527K
20260501T06Z_MSC_RDPS_WindV_IsbL-0800_RLatLon0.09_PT019H.grib2 2026-05-01 08:45 562K
20260501T06Z_MSC_RDPS_WindV_IsbL-0850_RLatLon0.09_PT019H.grib2 2026-05-01 08:45 610K
20260501T06Z_MSC_RDPS_WindV_IsbL-0875_RLatLon0.09_PT019H.grib2 2026-05-01 08:45 627K
20260501T06Z_MSC_RDPS_WindV_IsbL-0900_RLatLon0.09_PT019H.grib2 2026-05-01 08:45 637K
20260501T06Z_MSC_RDPS_WindV_IsbL-0925_RLatLon0.09_PT019H.grib2 2026-05-01 08:45 645K
20260501T06Z_MSC_RDPS_WindV_IsbL-0950_RLatLon0.09_PT019H.grib2 2026-05-01 08:45 644K
20260501T06Z_MSC_RDPS_WindV_IsbL-0970_RLatLon0.09_PT019H.grib2 2026-05-01 08:45 783K
20260501T06Z_MSC_RDPS_WindV_IsbL-0985_RLatLon0.09_PT019H.grib2 2026-05-01 08:45 780K
20260501T06Z_MSC_RDPS_WindV_IsbL-1000_RLatLon0.09_PT019H.grib2 2026-05-01 08:45 773K
20260501T06Z_MSC_RDPS_WindV_IsbL-1015_RLatLon0.09_PT019H.grib2 2026-05-01 08:45 811K